Stations météo

Publicité
Kielder Castle, Grande-Bretagne (99186): Température de l'air & dewpoint: 21.05.2019 04:00:00 - 27.05.2019 04:00:00 (BST)Kielder Castle, Grande-Bretagne (99186): Température de l'air -20cm & Température de l'air -100cm: 21.05.2019 04:00:00 - 27.05.2019 04:00:00 (BST)Kielder Castle, Grande-Bretagne (99186): Quantités de précipitations: 21.05.2019 04:00:00 - 27.05.2019 04:00:00 (BST)
Date & Time tt [°C] td [°C] tt -20cm [°C] tt -100cm [°C] rr [mm]
27.05.2019 04:00:00 - - - - -
27.05.2019 03:00:00 8,9 6,1 - - 0,0
27.05.2019 02:00:00 8,9 6,7 - - 0,0
27.05.2019 01:00:00 8,7 6,3 - - 0,0
27.05.2019 00:00:00 8,9 5,7 - - 0,0
26.05.2019 23:00:00 9,4 6,1 - - 0,0
26.05.2019 22:00:00 10,0 4,6 - - 0,0
26.05.2019 21:00:00 10,5 4,9 - - 0,0
26.05.2019 20:00:00 10,7 4,9 - - 0,0
26.05.2019 19:00:00 11,6 5,3 - - 0,0
26.05.2019 18:00:00 12,1 5,1 - - 0,0
26.05.2019 17:00:00 12,9 6,9 - - 0,0
26.05.2019 16:00:00 12,7 8,5 - - 0,0
26.05.2019 15:00:00 13,6 7,8 - - 0,0
26.05.2019 14:00:00 13,7 9,0 - - 0,0
26.05.2019 13:00:00 14,1 9,2 - - 0,0
26.05.2019 12:00:00 15,2 11,4 - - 0,0
26.05.2019 11:00:00 14,5 12,7 - - 0,0
26.05.2019 10:00:00 14,0 13,5 13,2 10,7 0,0
26.05.2019 09:00:00 12,9 12,5 - - 1,6
26.05.2019 08:00:00 12,3 11,9 - - 1,0
26.05.2019 07:00:00 12,2 11,8 - - 0,2
26.05.2019 06:00:00 12,2 11,9 - - 1,8
26.05.2019 05:00:00 12,1 11,8 - - 0,0
26.05.2019 04:00:00 12,0 11,7 - - 0,0
26.05.2019 03:00:00 12,5 12,2 - - 0,0
26.05.2019 02:00:00 12,4 12,1 - - 0,2
26.05.2019 01:00:00 12,5 12,2 - - 0,0
26.05.2019 00:00:00 12,3 12,0 - - 0,0
25.05.2019 23:00:00 12,2 12,0 - - 0,0
25.05.2019 22:00:00 11,9 11,7 - - 0,0
25.05.2019 21:00:00 11,5 11,2 - - 0,2
25.05.2019 20:00:00 11,2 10,8 - - 0,0
25.05.2019 19:00:00 10,8 10,4 - - 0,0
25.05.2019 18:00:00 10,4 9,7 - - 0,2
25.05.2019 17:00:00 10,5 9,6 - - 0,6
25.05.2019 16:00:00 10,5 9,3 - - 0,8
25.05.2019 15:00:00 10,6 8,8 - - 0,0
25.05.2019 14:00:00 12,1 8,4 - - 0,0
25.05.2019 13:00:00 12,8 6,4 - - 0,0
25.05.2019 12:00:00 12,6 6,6 - - 0,0
25.05.2019 11:00:00 11,8 5,0 - - 0,0
25.05.2019 10:00:00 12,6 6,5 13,2 10,7 0,0
25.05.2019 09:00:00 11,0 6,7 - - 0,0
25.05.2019 08:00:00 7,6 5,6 - - 0,0
25.05.2019 07:00:00 5,6 4,2 - - 0,0
25.05.2019 06:00:00 4,3 3,6 - - 0,0
25.05.2019 05:00:00 3,5 2,7 - - 0,0
25.05.2019 04:00:00 3,5 2,5 - - 0,0
25.05.2019 03:00:00 4,2 3,2 - - 0,0
25.05.2019 02:00:00 4,9 3,4 - - 0,0
25.05.2019 01:00:00 5,4 3,5 - - 0,0
25.05.2019 00:00:00 7,1 4,0 - - 0,0
24.05.2019 23:00:00 8,2 4,5 - - 0,0
24.05.2019 22:00:00 10,2 4,4 - - 0,0
24.05.2019 21:00:00 13,1 4,5 - - 0,0
24.05.2019 20:00:00 14,8 4,3 - - 0,0
24.05.2019 19:00:00 16,0 4,6 - - 0,0
24.05.2019 18:00:00 17,1 4,5 - - 0,0
24.05.2019 17:00:00 18,9 4,8 - - 0,0
24.05.2019 16:00:00 18,3 5,4 - - 0,0
24.05.2019 15:00:00 18,2 6,5 - - 0,0
24.05.2019 14:00:00 17,7 6,8 - - 0,0
24.05.2019 13:00:00 17,2 7,9 - - 0,0
24.05.2019 12:00:00 15,5 6,0 - - 0,0
24.05.2019 11:00:00 14,3 5,3 - - 0,0
24.05.2019 10:00:00 12,7 5,2 12,9 10,5 0,0
24.05.2019 09:00:00 11,1 5,7 - - 0,0
24.05.2019 08:00:00 9,7 5,4 - - 0,0
24.05.2019 07:00:00 8,2 5,3 - - 0,0
24.05.2019 06:00:00 5,7 4,4 - - 0,0
24.05.2019 05:00:00 5,6 4,7 - - 0,0
24.05.2019 04:00:00 5,7 4,2 - - 0,0
24.05.2019 03:00:00 6,3 4,0 - - 0,0
24.05.2019 02:00:00 6,7 3,9 - - 0,0
24.05.2019 01:00:00 7,4 3,6 - - 0,0
24.05.2019 00:00:00 7,9 3,6 - - 0,0
23.05.2019 23:00:00 8,4 3,7 - - 0,0
23.05.2019 22:00:00 10,0 3,5 - - 0,0
23.05.2019 21:00:00 11,6 3,5 - - 0,0
23.05.2019 20:00:00 13,5 2,8 - - 0,0
23.05.2019 19:00:00 15,1 3,0 - - 0,0
23.05.2019 18:00:00 16,0 5,8 - - 0,0
23.05.2019 17:00:00 16,2 6,1 - - 0,0
23.05.2019 16:00:00 16,6 6,0 - - 0,0
23.05.2019 15:00:00 16,4 6,6 - - 0,0
23.05.2019 14:00:00 16,2 6,0 - - 0,0
23.05.2019 13:00:00 15,6 6,3 - - 0,0
23.05.2019 12:00:00 14,7 4,5 - - 0,0
23.05.2019 11:00:00 13,3 4,1 - - 0,0
23.05.2019 10:00:00 12,1 1,4 12,5 10,4 0,0
23.05.2019 09:00:00 10,4 2,0 - - 0,0
23.05.2019 08:00:00 8,8 3,5 - - 0,0
23.05.2019 07:00:00 6,8 4,7 - - 0,0
23.05.2019 06:00:00 2,6 2,0 - - 0,0
23.05.2019 05:00:00 2,9 2,2 - - 0,0
23.05.2019 04:00:00 4,5 3,1 - - 0,0
23.05.2019 03:00:00 5,3 3,8 - - 0,0
23.05.2019 02:00:00 4,1 3,0 - - 0,0
23.05.2019 01:00:00 4,6 2,8 - - 0,0
23.05.2019 00:00:00 5,5 3,6 - - 0,0
22.05.2019 23:00:00 6,6 3,3 - - 0,0
22.05.2019 22:00:00 9,1 4,1 - - 0,0
22.05.2019 21:00:00 11,0 4,0 - - 0,0
22.05.2019 20:00:00 12,9 4,2 - - 0,0
22.05.2019 19:00:00 13,0 5,4 - - 0,0
22.05.2019 18:00:00 14,6 4,8 - - 0,0
22.05.2019 17:00:00 16,1 6,1 - - 0,0
22.05.2019 16:00:00 14,2 5,4 - - 0,0
22.05.2019 15:00:00 15,2 4,6 - - 0,0
22.05.2019 14:00:00 15,6 4,5 - - 0,0
22.05.2019 13:00:00 14,7 2,9 - - 0,0
22.05.2019 12:00:00 14,1 2,7 - - 0,0
22.05.2019 11:00:00 13,1 5,0 - - 0,0
22.05.2019 10:00:00 11,4 3,7 12,4 10,2 0,0
22.05.2019 09:00:00 10,1 4,5 - - 0,0
22.05.2019 08:00:00 8,2 4,7 - - 0,0
22.05.2019 07:00:00 3,0 2,1 - - 0,0
22.05.2019 06:00:00 0,0 -0,2 - - 0,0
22.05.2019 05:00:00 0,1 -0,4 - - 0,0
22.05.2019 04:00:00 0,8 0,2 - - 0,0
22.05.2019 03:00:00 2,1 1,2 - - 0,0
22.05.2019 02:00:00 3,2 1,9 - - 0,0
22.05.2019 01:00:00 3,7 2,2 - - 0,0
22.05.2019 00:00:00 4,9 2,8 - - 0,0
21.05.2019 23:00:00 5,9 3,1 - - 0,0
21.05.2019 22:00:00 8,8 3,6 - - 0,0
21.05.2019 21:00:00 11,5 3,8 - - 0,0
21.05.2019 20:00:00 12,7 2,9 - - 0,0
21.05.2019 19:00:00 14,0 3,9 - - 0,0
21.05.2019 18:00:00 14,9 4,9 - - 0,0
21.05.2019 17:00:00 16,2 4,6 - - 0,0
21.05.2019 16:00:00 16,4 6,5 - - 0,0
21.05.2019 15:00:00 16,4 7,7 - - 0,0
21.05.2019 14:00:00 13,8 7,3 - - 0,0
21.05.2019 13:00:00 14,0 6,4 - - 0,0
21.05.2019 12:00:00 13,7 7,2 - - 0,0
21.05.2019 11:00:00 12,6 7,8 - - 0,0
21.05.2019 10:00:00 9,9 7,8 12,4 10,2 0,0
21.05.2019 09:00:00 8,3 8,2 - - 0,0
21.05.2019 08:00:00 6,5 6,5 - - 0,0
21.05.2019 07:00:00 5,2 5,2 - - 0,0
21.05.2019 06:00:00 2,8 2,8 - - 0,0
21.05.2019 05:00:00 2,0 1,9 - - 0,0
21.05.2019 04:00:00 1,9 1,7 - - 0,0

tt = Température de l'air
td = dewpoint
tt -20cm = Température de l'air -20cm
tt -100cm = Température de l'air -100cm
rr = Quantités de précipitations

stations d'obs. à proximité